TimeCST,TemperatureF,Dew PointF,Humidity,Sea Level PressureIn,VisibilityMPH,Wind Direction,Wind SpeedMPH,Gust SpeedMPH,PrecipitationIn,Events,Conditions,WindDirDegrees,DateUTC
12:53 AM,12.9,3.0,65,29.53,10.0,NW,8.1,-,N/A,,Partly Cloudy,320,2014-01-25 06:53:00
1:53 AM,12.0,1.9,64,29.55,10.0,Variable,5.8,-,N/A,,Overcast,0,2014-01-25 07:53:00
2:30 AM,8.1,-2.9,61,29.51,8.0,NW,9.2,21.9,0.00,,Scattered Clouds,310,2014-01-25 08:30:00
2:53 AM,6.1,-6.0,58,29.62,8.0,Variable,6.9,25.3,0.00,,Clear,0,2014-01-25 08:53:00
3:33 AM,3.9,-6.0,64,29.55,10.0,Variable,6.9,21.9,0.00,,Overcast,0,2014-01-25 09:33:00
3:53 AM,3.0,-7.1,63,29.64,10.0,Variable,6.9,-,0.00,,Mostly Cloudy,0,2014-01-25 09:53:00
4:06 AM,3.0,-8.0,60,29.57,10.0,Variable,6.9,19.6,N/A,,Scattered Clouds,0,2014-01-25 10:06:00
4:53 AM,1.0,-9.9,60,29.68,10.0,Variable,5.8,-,N/A,,Clear,0,2014-01-25 10:53:00
5:53 AM,-0.9,-11.9,60,29.71,10.0,Variable,5.8,-,N/A,,Clear,0,2014-01-25 11:53:00
6:53 AM,-2.0,-11.9,63,29.74,10.0,Variable,6.9,-,N/A,,Clear,0,2014-01-25 12:53:00
7:53 AM,-2.9,-13.0,62,29.76,10.0,Variable,6.9,-,N/A,,Clear,0,2014-01-25 13:53:00
8:53 AM,-0.9,-13.0,57,29.77,10.0,North,-9999.0,-,N/A,,Clear,0,2014-01-25 14:53:00
9:53 AM,-0.9,-13.0,57,29.79,10.0,NW,10.4,18.4,0.00,,Partly Cloudy,310,2014-01-25 15:53:00
10:53 AM,1.0,-13.0,52,29.82,10.0,Variable,6.9,18.4,N/A,,Clear,0,2014-01-25 16:53:00
11:53 AM,1.9,-14.1,47,29.82,10.0,NNW,8.1,-,N/A,,Clear,330,2014-01-25 17:53:00
12:53 PM,3.9,-13.0,46,29.81,10.0,WNW,9.2,17.3,N/A,,Clear,290,2014-01-25 18:53:00
1:53 PM,5.0,-13.0,43,29.80,10.0,WNW,8.1,17.3,N/A,,Clear,290,2014-01-25 19:53:00
2:53 PM,5.0,-14.1,41,29.80,10.0,WNW,8.1,18.4,N/A,,Clear,300,2014-01-25 20:53:00
3:53 PM,5.0,-14.1,41,29.81,10.0,Variable,6.9,-,N/A,,Clear,0,2014-01-25 21:53:00
4:53 PM,3.0,-15.0,43,29.82,10.0,West,4.6,-,N/A,,Clear,270,2014-01-25 22:53:00
5:53 PM,-2.0,-15.0,54,29.81,10.0,Calm,Calm,-,N/A,,Clear,0,2014-01-25 23:53:00
6:53 PM,-5.1,-15.0,62,29.79,10.0,Calm,Calm,-,N/A,,Clear,0,2014-01-26 00:53:00
7:53 PM,-6.0,-13.0,72,29.77,10.0,South,3.5,-,N/A,,Partly Cloudy,190,2014-01-26 01:53:00
8:53 PM,-0.0,-13.0,54,29.75,10.0,South,3.5,-,N/A,,Overcast,190,2014-01-26 02:53:00
9:53 PM,1.0,-11.9,55,29.70,10.0,Calm,Calm,-,N/A,,Overcast,0,2014-01-26 03:53:00
10:53 PM,1.0,-11.9,55,29.68,10.0,SW,3.5,-,N/A,,Overcast,220,2014-01-26 04:53:00
11:53 PM,1.0,-11.0,57,29.64,10.0,South,3.5,-,N/A,,Overcast,190,2014-01-26 05:53:00